FW0663 Weather Reports


Display with metric or nautical units.
time (UTC)temp
F
wind
direction
speed
MPH
gust
MPH
rain 1hr
in
rain 24hr
in
rain mn
in
humidity
%
barometer
mb
20260504011557 80 299 2.0 7.0 0.00 0.00 0.00 24 1008.8
20260504010100 80 85 2.0 7.0 0.00 0.00 0.00 24 1009.0
20260504004553 81 28 2.0 7.0 0.00 0.00 0.00 26 1008.9
20260504003051 81 97 2.0 6.0 0.00 0.00 0.00 22 1009.1
20260504001557 81 87 2.0 6.0 0.00 0.00 0.00 23 1009.2
20260504000054 81 325 2.0 7.0 0.00 0.00 0.00 24 1009.3
20260503234545 80 335 1.0 8.0 0.00 0.00 0.00 23 1009.6
20260503233044 79 360 1.0 8.0 0.00 0.00 0.00 26 1009.8
20260503231541 77 113 1.0 9.0 0.00 0.00 0.00 27 1009.9
20260503230056 76 57 1.0 5.0 0.00 0.00 0.00 35 1010.4
20260503224537 75 76 2.0 9.0 0.00 0.00 0.00 34 1010.6
20260503223038 75 63 1.0 6.0 0.00 0.00 0.00 35 1010.7
20260503221538 75 49 1.0 8.0 0.00 0.00 0.00 32 1010.9
20260503220037 74 31 2.0 7.0 0.00 0.00 0.00 37 1011.2
20260503214545 75 63 2.0 6.0 0.00 0.00 0.00 31 1011.4
20260503213033 74 84 3.0 7.0 0.00 0.00 0.00 36 1011.7
20260503211528 75 90 3.0 10.0 0.00 0.00 0.00 33 1011.8
20260503210027 78 338 3.0 12.0 0.00 0.00 0.00 28 1011.7
20260503204530 80 33 3.0 7.0 0.00 0.00 0.00 23 1011.8
20260503203025 79 82 2.0 7.0 0.00 0.00 0.00 25 1011.8
20260503201521 79 63 2.0 7.0 0.00 0.00 0.00 27 1011.9
20260503200017 77 289 1.0 9.0 0.00 0.00 0.00 27 1012.1
20260503194514 76 321 2.0 7.0 0.00 0.00 0.00 30 1012.4
20260503193013 76 61 3.0 8.0 0.00 0.00 0.00 30 1012.8
20260503191508 75 331 1.0 5.0 0.00 0.00 0.00 34 1013.0
20260503190013 73 11 3.0 6.0 0.00 0.00 0.00 34 1013.2
20260503184501 72 286 3.0 6.0 0.00 0.00 0.00 37 1013.5
20260503183105 71 346 3.0 6.0 0.00 0.00 0.00 38 1013.7
20260503181606 70 333 3.0 5.0 0.00 0.00 0.00 39 1014.1
20260503180053 69 327 3.0 7.0 0.00 0.00 0.00 41 1014.2
20260503174553 68 15 2.0 5.0 0.00 0.00 0.00 43 1014.4
20260503173045 67 306 2.0 4.0 0.00 0.00 0.00 43 1014.6
20260503171541 66 333 1.0 6.0 0.00 0.00 0.00 44 1014.7
20260503120119 44 90 0.0 2.0 0.00 0.00 0.00 81 1015.2
20260503081532 49 124 1.0 3.0 0.00 0.00 0.00 73 1015.2
20260503071522 52 91 1.0 5.0 0.00 0.00 0.00 68 1015.5
20260503054519 58 213 1.0 3.0 0.00 0.00 0.00 58 1014.9
20260503053018 57 205 0.0 3.0 0.00 0.00 0.00 58 1014.8
20260503051513 58 207 1.0 2.0 0.00 0.00 0.00 56 1014.5
20260503050012 60 329 0.0 2.0 0.00 0.00 0.00 54 1014.2
20260503044512 61 284 0.0 3.0 0.00 0.00 0.00 52 1013.9
20260503043012 61 284 1.0 6.0 0.00 0.00 0.00 51 1013.6
20260503041512 61 200 2.0 6.0 0.00 0.00 0.00 49 1013.4
20260503040023 61 202 2.0 5.0 0.00 0.00 0.00 49 1013.1
20260503034511 62 235 0.0 2.0 0.00 0.00 0.00 48 1013.0
20260503033010 62 219 0.0 0.0 0.00 0.00 0.00 47 1012.8
20260503031510 64 229 0.0 2.0 0.00 0.00 0.00 46 1012.5
20260503030009 65 253 2.0 4.0 0.00 0.00 0.00 44 1012.5
20260503024509 65 186 0.0 2.0 0.00 0.00 0.00 42 1012.2
20260503023008 68 94 0.0 6.0 0.00 0.00 0.00 39 1012.1
20260503021515 69 294 1.0 2.0 0.00 0.00 0.00 37 1012.1
20260503020008 69 9 2.0 7.0 0.00 0.00 0.00 37 1012.1
20260503014508 69 355 2.0 6.0 0.00 0.00 0.00 40 1012.1
20260503013007 69 325 3.0 7.0 0.00 0.00 0.00 36 1011.9